Location: Cheyres
(46.8153°N, 6.7877°E)
Time: 00:47:49
(UTC+00:00)

Tiros 1 - Pass Details

Date: 04 June 2022
Orbit: 629 x 663 km, 48.4° (Epoch: 05 July)

Event Time Altitude Azimuth Distance (km) Brightness Sun altitude
Rises 01:17:47 0° 285° (WNW) 2,919 10.4 -16.7°
Reaches altitude 10° 01:20:06 10° 285° (WNW) 2,012 9.6 -16.5°
Maximum altitude 01:24:43 81° 200° (SSW) 647 7.0 -16.2°
Drops below altitude 10° 01:29:23 10° 112° (ESE) 2,023 9.8 -15.8°
Sets 01:31:43 0° 112° (ESE) 2,936 10.6 -15.6°
